Location: St. Louis
(38.6270°N, 90.1994°W)
Time: 14:08:29
(UTC-06:00)

deb Explorer IX - Pass Details

Date: 08 December 2021
Orbit: 544 x 1082 km, 38.8° (Epoch: 16 January)

Event Time Altitude Azimuth Distance (km) Brightness Sun altitude
Rises 09:06:38 0° 253° (WSW) 3,339 ? 17.3°
Reaches altitude 10° 09:09:19 10° 252° (WSW) 2,314 ? 17.6°
Maximum altitude 09:14:41 75° 168° (SSE) 712 ? 18.3°
Drops below altitude 10° 09:19:16 10° 82° (E) 1,992 ? 18.8°
Sets 09:21:27 0° 81° (E) 2,838 ? 19.1°
